Hartford, CT

10:52 PM EST on November 19, 2019 (GMT -0500)
Hartford-brainard

Weather History for KHFD - October, 2019

Change the Weather History Date:

Sunday, October 20, 2019

  Actual Average Record
Temperature  
Mean Temperature 46 °F -  
Max Temperature 57 °F 59 °F 80 °F (1947)
Min Temperature 35 °F 37 °F 20 °F (1974)
Degree Days  
Heating Degree Days 19    
Moisture  
Dew Point 42 °F    
Average Humidity 82    
Maximum Humidity 96    
Minimum Humidity 62    
Precipitation  
Precipitation 0.10 in - - ()
Sea Level Pressure  
Sea Level Pressure 30.06 in    
Wind  
Wind Speed 1 mph ()    
Max Wind Speed 5 mph    
Max Gust Speed -    
Visibility 9.7 miles    
Events Rain    
Averages and records for this station are not official NWS values.
T = Trace of Precipitation, MM = Missing Value Source: Averaged Metar Reports

Daily Weather History Graph

Daily Weather History Graph

Search for Another Location

Airport or City:

Astronomy

Oct. 20, 2019 Rise Set
Actual Time 7:08 AM EDT 6:01 PM EDT
Civil Twilight 6:39 AM EDT 6:30 PM EDT
Nautical Twilight 6:07 AM EDT 7:02 PM EDT
Astronomical Twilight 5:35 AM EDT 7:34 PM EDT
Moon 11:04 PM EDT 1:37 PM EDT
Length of Visible Light 11h 50m
Length of Day
10h 53m
Waning Gibbous, 59% of the Moon is Illuminated
Oct 20
Waning Gibbous
Oct 21
Last Quarter
Oct 27
New
Nov 4
First Quarter
Nov 12
Full

Hourly Weather History & Observations

Time (EDT) Temp. Windchill Dew Point Humidity Pressure Visibility Wind Dir Wind Speed Gust Speed Precip Events Conditions
12:53 AM 41.0 °F - 37.9 °F 89% 30.06 in 10.0 mi Calm Calm - N/A   Clear
1:53 AM 39.0 °F - 37.0 °F 93% 30.06 in 10.0 mi Calm Calm - N/A   Clear
2:53 AM 39.0 °F - 36.0 °F 89% 30.08 in 10.0 mi Calm Calm - N/A   Clear
3:53 AM 37.9 °F - 36.0 °F 93% 30.06 in 10.0 mi Calm Calm - N/A   Clear
4:53 AM 37.0 °F - 35.1 °F 93% 30.06 in 10.0 mi Calm Calm - N/A   Clear
5:53 AM 37.9 °F - 35.1 °F 89% 30.08 in 10.0 mi Calm Calm - N/A   Clear
6:53 AM 35.1 °F - 34.0 °F 96% 30.06 in 10.0 mi Calm Calm - N/A   Clear
7:53 AM 37.9 °F - 35.1 °F 89% 30.07 in 10.0 mi Calm Calm - N/A   Clear
8:53 AM 41.0 °F 39.0 °F 37.0 °F 86% 30.10 in 10.0 mi Variable 3.5 mph - N/A   Clear
9:53 AM 44.1 °F - 39.0 °F 82% 30.11 in 10.0 mi Calm Calm - N/A   Clear
10:53 AM 48.9 °F - 39.9 °F 71% 30.10 in 10.0 mi Calm Calm - N/A   Clear
11:53 AM 52.0 °F - 39.9 °F 63% 30.09 in 10.0 mi Calm Calm - N/A   Clear
12:53 PM 54.0 °F - 42.1 °F 64% 30.08 in 10.0 mi SSW 3.5 mph - N/A   Clear
1:53 PM 55.9 °F - 43.0 °F 62% 30.06 in 10.0 mi Calm Calm - N/A   Scattered Clouds
2:53 PM 57.0 °F - 46.0 °F 67% 30.05 in 10.0 mi East 3.5 mph - N/A   Mostly Cloudy
3:53 PM 57.0 °F - 46.9 °F 69% 30.05 in 10.0 mi ENE 3.5 mph - 0.00 in Rain Light Rain
4:53 PM 55.9 °F - 46.9 °F 72% 30.04 in 9.0 mi Calm Calm - 0.01 in Rain Light Rain
5:53 PM 54.0 °F - 48.9 °F 83% 30.03 in 10.0 mi Calm Calm - 0.01 in Rain Light Rain
6:53 PM 53.1 °F - 51.1 °F 93% 30.04 in 9.0 mi Calm Calm - 0.01 in Rain Light Rain
7:53 PM 53.1 °F - 50.0 °F 89% 30.04 in 6.0 mi NNE 3.5 mph - 0.02 in Rain Light Rain
8:53 PM 52.0 °F - 46.9 °F 83% 30.04 in 10.0 mi East 4.6 mph - 0.03 in Rain Light Rain
9:53 PM 52.0 °F - 48.0 °F 86% 30.04 in 10.0 mi NE 4.6 mph - 0.00 in   Overcast
10:53 PM 51.1 °F - 48.9 °F 92% 30.04 in 10.0 mi NNE 3.5 mph - 0.02 in Rain Light Rain
11:53 PM 52.0 °F - 48.0 °F 86% 30.03 in 10.0 mi Variable 3.5 mph - 0.00 in Rain Light Rain